[[{"header":{"parameterUnit":"m.s-1","parameterCategory":1,"la1":30.2991,"la2":30.254,"lo1":-89.0895,"lo2":-89.0444,"dy":0.0017,"dx":0.0017,"nx":28,"ny":28,"refTime":"2024-05-12T09:00:00:Z","depth":0,"parameterNumber":2,"parameterNumberName":"U-component_of_WINDS"},"data":[0,0,0,0,0,0,0,0,0,0,0,0,0,0,0,0,0,0,0,0,0,0,0,0,0,0,0,0,0,0,0,0,0,0,0,0,0,0,0,0,0,0,0,0,0,0,0,0,0,0,0,0,0,0,0,0,0,0,-5.2141,-5.2142,0,-5.223,-5.2231,-5.2232,-5.2195,-5.2193,-5.2191,-5.2189,-5.2277,-5.2281,-5.2285,0,0,0,0,0,0,0,0,0,0,0,0,0,-5.1938,-5.1942,-5.2141,-5.2142,-5.2143,-5.2229,-5.2231,-5.2232,-5.2195,-5.2193,-5.219,-5.2188,-5.2275,-5.228,-5.2286,0,0,0,0,0,0,0,0,0,0,0,0,0,-5.2027,-5.1944,-5.2141,-5.2135,-5.2136,-5.2229,-5.2231,-5.2232,-5.2196,-5.2193,-5.2189,-5.2186,-5.2274,-5.228,-5.2286,-5.239,0,0,-5.2306,-5.2309,0,0,0,0,0,0,0,0,-5.2022,-5.2034,-5.2135,-5.2136,-5.2137,-5.2198,-5.2191,-5.2285,-5.2196,-5.2173,-5.2189,-5.2185,-5.2253,-5.2261,-5.2284,-5.2394,-5.2397,-5.2307,-5.2311,-5.2313,-5.2315,0,0,0,0,0,0,0,-5.2016,-5.203,-5.2176,-5.2137,-5.2138,-5.2128,-5.2137,-5.2209,-5.2229,-5.2175,-5.2172,-5.2183,-5.2253,-5.2278,-5.2286,-5.2399,-5.2307,-5.2312,-5.2316,-5.2319,-5.2596,-5.2599,0,0,0,0,0,0,-5.201,-5.2025,-5.2173,-5.2179,-5.207,-5.2134,-5.2144,-5.2181,-5.2229,-5.2233,-5.2186,-5.2181,-5.2269,-5.2279,-5.2289,-5.2412,-5.2313,-5.2319,-5.2323,-5.2593,-5.2597,-5.2601,0,0,0,0,0,0,-5.2005,-5.2023,-5.217,-5.2101,-5.2119,-5.2141,-5.2183,-5.2185,-5.221,-5.2237,-5.224,-5.2208,-5.2267,-5.228,-5.2365,-5.2414,-5.2322,-5.2328,-5.2589,-5.2594,-5.2599,-5.2658,0,0,0,0,0,0,-5.2,-5.2022,-5.2062,-5.2103,-5.2123,-5.2244,-5.2186,-5.2189,-5.2222,-5.2217,-5.2259,-5.2263,-5.2265,-5.2355,-5.2371,-5.2421,-5.2333,-5.2584,-5.2591,-5.2597,-5.2652,-5.2665,-5.2676,0,0,0,0,0,-5.1993,-5.2075,-5.2064,-5.2082,-5.2173,-5.2247,-5.2259,-5.226,-5.2226,-5.2266,-5.2283,-5.2262,-5.2407,-5.2364,-5.2382,-5.2435,-5.2581,-5.2589,-5.2597,-5.2647,-5.2663,-5.2676,0,0,0,0,0,0,-5.2038,-5.208,-5.2068,-5.2166,-5.2204,-5.2241,-5.2291,-5.2277,-5.2325,-5.2318,-5.2317,-5.2327,-5.2414,-5.2433,-5.2385,-5.2537,-5.2489,-5.25,-5.2521,-5.2536,-5.2548,-5.254,-5.2339,0,0,0,0,0,-5.206,-5.2117,-5.215,-5.2233,-5.2253,-5.2269,-5.2301,-5.23,-5.2338,-5.2353,-5.2377,-5.2414,-5.2468,-5.2503,-5.2555,-5.2656,-5.2663,-5.2701,-5.2713,-5.2723,-5.2732,-5.2785,-5.2802,-5.2626,-5.2626,-5.2626,0,0,-5.2104,-5.2134,-5.217,-5.2243,-5.2272,-5.233,-5.2282,-5.2346,-5.2389,-5.2363,-5.2444,-5.2463,-5.2504,-5.2597,-5.2639,-5.2616,-5.2783,-5.2733,-5.274,-5.2744,-5.2795,-5.2812,-5.2827,-5.2632,-5.2631,-5.263,0,0,-5.2215,-5.2245,-5.2316,-5.2347,-5.2391,-5.2401,-5.2419,-5.2459,-5.247,-5.2552,-5.2533,-5.2584,-5.2678,-5.2708,-5.2735,-5.2859,-5.284,-5.2876,-5.2938,-5.299,-5.3004,-5.3016,-5.3058,-5.3074,-5.2886,-5.2886,-5.2886,0,-5.2265,-5.2353,-5.2355,-5.2421,-5.2453,-5.2433,-5.2505,-5.2534,-5.2592,-5.2614,-5.2588,-5.2704,-5.2731,-5.283,-5.2861,-5.2884,-5.2903,-5.287,-5.3002,-5.3014,-5.3025,-5.3066,-5.3082,-5.289,-5.2889,-5.2889,-5.2889,0,-5.2411,-5.2472,-5.2525,-5.2583,-5.2621,-5.269,-5.2701,-5.274,-5.2735,-5.2748,-5.2831,-5.2863,-5.292,-5.2944,-5.294,-5.3043,-5.3027,-5.3001,-5.2952,-5.3046,-5.3084,-5.3099,-5.2895,-5.2894,-5.2893,-5.2892,0,0,-5.2551,-5.261,-5.2629,-5.2654,-5.2703,-5.275,-5.2817,-5.2874,-5.2906,-5.2948,-5.3003,-5.3083,-5.306,-5.3092,-5.3091,-5.3137,-5.3231,-5.3106,-5.3107,-5.3126,-5.3344,-5.3361,-5.3379,-5.322,-5.3223,-5.3226,-5.334,0,-5.2664,-5.2783,-5.2787,-5.2895,-5.2951,-5.2933,-5.2992,-5.3027,-5.3042,-5.3091,-5.3106,-5.3162,-5.3129,-5.3147,-5.3193,-5.321,-5.3274,-5.3202,-5.327,-5.3273,-5.3258,-5.3399,-5.3418,-5.3524,-5.3355,-5.3358,-5.336,0,-5.2811,-5.2858,-5.2972,-5.3011,-5.3035,-5.3088,-5.3139,-5.3187,-5.3227,-5.3234,-5.327,-5.3263,-5.3331,-5.3282,-5.3375,-5.3326,-5.3354,-5.3367,-5.3372,-5.3376,-5.332,-5.3405,-5.3558,-5.3573,-5.3383,-5.3381,-5.338,0,-5.29,-5.2991,-5.3071,-5.3093,-5.3142,-5.3179,-5.3201,-5.3238,-5.3272,-5.3317,-5.3339,-5.3392,-5.342,-5.3461,-5.3467,-5.3432,-5.3561,-5.3512,-5.3567,-5.3567,-5.3593,-5.3591,-5.375,-5.3615,-5.3615,-5.3615,-5.3614,0,-5.3024,-5.3094,-5.3111,-5.3159,-5.3237,-5.3241,-5.3318,-5.3337,-5.337,-5.3421,-5.341,-5.3458,-5.3466,-5.3516,-5.3522,-5.3597,-5.3611,-5.3617,-5.3618,-5.3617,-5.3616,-5.3634,-5.3626,-5.3619,-5.3618,-5.3617,-5.3617,0,-5.3135,-5.3149,-5.3234,-5.3274,-5.3286,-5.3341,-5.3374,-5.342,-5.3434,-5.3499,-5.3515,-5.3536,-5.3594,-5.3606,-5.3675,-5.3679,-5.3768,-5.3763,-5.3755,-5.3753,-5.3807,-5.3801,-5.3981,-5.4004,-5.3857,-5.3858,-5.3859,0,-5.3212,-5.3265,-5.3311,-5.3345,-5.3368,-5.3423,-5.3458,-5.3464,-5.35,-5.355,-5.359,-5.3647,-5.3693,-5.3787,-5.3808,-5.3861,-5.3855,-5.3915,-5.3862,-5.386,-5.3853,-5.3849,-5.3854,-5.3924,-5.3925,-5.3926,-5.3928,0,-5.3347,-5.3352,-5.3402,-5.3455,-5.3496,-5.3538,-5.3578,-5.3606,-5.3618,-5.3659,-5.3719,-5.3754,-5.3825,-5.3882,-5.3934,-5.3956,-5.3944,-5.3944,-5.3959,-5.3958,-5.395,-5.3953,-5.378,-5.3939,-5.3938,-5.3937,-5.3937,-5.3936,-5.3442,-5.3488,-5.3527,-5.3583,-5.3614,-5.3651,-5.3697,-5.3716,-5.3766,-5.3824,-5.3826,-5.3891,-5.3929,-5.3998,-5.4024,-5.4074,-5.4055,-5.4077,-5.4083,-5.4087,-5.4091,-5.3945,-5.4084,-5.4084,-5.4083,-5.4083,-5.4083,0,-5.3575,-5.3599,-5.3651,-5.3707,-5.3751,-5.3737,-5.378,-5.3817,-5.3875,-5.3912,-5.3958,-5.4026,-5.4081,-5.4107,-5.4161,-5.4196,-5.4192,-5.421,-5.4206,-5.4211,-5.4106,-5.4087,-5.4213,-5.4213,-5.4213,-5.4213,-5.4213,-5.4212,-5.3649,-5.3726,-5.3735,-5.3827,-5.3851,-5.3915,-5.394,-5.3974,-5.4004,-5.4081,-5.4126,-5.4143,-5.4176,-5.4232,-5.4282,-5.4288,-5.4307,-5.4328,-5.4331,-5.4232,-5.4219,-5.4206,-5.4188,-5.4333,-5.4333,-5.4432,-5.4432,-5.4433]},{"header":{"parameterUnit":"m.s-1","parameterCategory":1,"la1":30.2991,"la2":30.254,"lo1":-89.0895,"lo2":-89.0444,"dy":0.0017,"dx":0.0017,"nx":28,"ny":28,"refTime":"2024-05-12T09:00:00:Z","depth":0,"parameterNumber":3,"parameterNumberName":"V-component_of_WINDS"},"data":[0,0,0,0,0,0,0,0,0,0,0,0,0,0,0,0,0,0,0,0,0,0,0,0,0,0,0,0,0,0,0,0,0,0,0,0,0,0,0,0,0,0,0,0,0,0,0,0,0,0,0,0,0,0,0,0,0,0,7.5312,7.5313,0,7.5403,7.5404,7.5405,7.5341,7.5338,7.5335,7.5333,7.5419,7.5424,7.5429,0,0,0,0,0,0,0,0,0,0,0,0,0,7.5077,7.5081,7.5312,7.5313,7.5314,7.5403,7.5404,7.5405,7.5341,7.5338,7.5334,7.5331,7.5418,7.5424,7.543,0,0,0,0,0,0,0,0,0,0,0,0,0,7.5174,7.5083,7.5311,7.5293,7.5292,7.5402,7.5404,7.5405,7.5342,7.5338,7.5334,7.533,7.5416,7.5423,7.543,7.5562,0,0,7.5453,7.5456,0,0,0,0,0,0,0,0,7.5169,7.5183,7.5295,7.5294,7.5294,7.5356,7.5353,7.5457,7.5343,7.5323,7.5332,7.5328,7.5401,7.541,7.5436,7.5566,7.5569,7.5454,7.5458,7.5462,7.5464,0,0,0,0,0,0,0,7.5162,7.5179,7.5347,7.5296,7.5296,7.5278,7.5287,7.5372,7.5385,7.5324,7.532,7.5332,7.54,7.5429,7.5438,7.5571,7.5454,7.546,7.5465,7.5468,7.5811,7.5816,0,0,0,0,0,0,7.5158,7.5173,7.5344,7.535,7.522,7.5286,7.5296,7.534,7.5384,7.5386,7.5336,7.5329,7.5418,7.5429,7.544,7.5596,7.5461,7.5468,7.5473,7.5807,7.5812,7.5817,0,0,0,0,0,0,7.5153,7.5174,7.5341,7.5261,7.5281,7.5295,7.5345,7.5344,7.5373,7.5392,7.5393,7.5363,7.5415,7.543,7.5532,7.5598,7.5472,7.5479,7.5801,7.5808,7.5815,7.5908,0,0,0,0,0,0,7.5147,7.5172,7.5224,7.5262,7.5285,7.5433,7.5349,7.5349,7.5387,7.5379,7.5418,7.5421,7.5413,7.5521,7.554,7.5606,7.5484,7.5795,7.5804,7.5813,7.5899,7.5917,7.5933,0,0,0,0,0,7.5139,7.5245,7.5227,7.5248,7.535,7.5437,7.545,7.5441,7.5392,7.5443,7.5455,7.5419,7.5588,7.5532,7.5552,7.5622,7.5791,7.5802,7.5812,7.5891,7.5914,7.5932,0,0,0,0,0,0,7.5211,7.525,7.523,7.5353,7.5392,7.5426,7.5489,7.5465,7.5517,7.5507,7.5492,7.5502,7.5609,7.5626,7.5563,7.575,7.5682,7.5697,7.5735,7.5756,7.5773,7.5766,7.5491,0,0,0,0,0,7.5242,7.5312,7.5341,7.5446,7.5467,7.5476,7.5513,7.5503,7.5543,7.5558,7.5578,7.5616,7.5678,7.5718,7.5776,7.5902,7.5908,7.5959,7.5976,7.599,7.6002,7.6069,7.6091,7.5852,7.5852,7.5851,0,0,7.5305,7.5335,7.5379,7.5462,7.5491,7.5561,7.549,7.5567,7.5618,7.5569,7.5667,7.5684,7.5725,7.5839,7.5891,7.5857,7.6071,7.6004,7.6014,7.6019,7.6082,7.6105,7.6125,7.5859,7.5858,7.5856,0,0,7.5456,7.5487,7.5577,7.5609,7.5656,7.5661,7.5683,7.5721,7.573,7.5829,7.5794,7.5854,7.596,7.5991,7.6021,7.6185,7.6153,7.6204,7.6291,7.6356,7.6375,7.6392,7.6449,7.6469,7.6217,7.6217,7.6217,0,7.5528,7.5635,7.5627,7.5707,7.5743,7.5705,7.5796,7.5826,7.5889,7.5914,7.5876,7.6009,7.6034,7.6154,7.6195,7.6221,7.6243,7.6198,7.6374,7.639,7.6406,7.6459,7.6481,7.6223,7.6222,7.6222,7.6221,0,7.572,7.5794,7.5862,7.5925,7.5969,7.6055,7.6058,7.6103,7.609,7.6098,7.6198,7.6228,7.6291,7.6319,7.6306,7.6438,7.6415,7.6376,7.6306,7.6434,7.6484,7.6505,7.6231,7.6229,7.6227,7.6226,0,0,7.5917,7.5977,7.6001,7.6029,7.6079,7.6135,7.6218,7.6281,7.632,7.6364,7.6432,7.6524,7.6488,7.6522,7.6512,7.657,7.6696,7.6523,7.6524,7.6552,7.6841,7.6868,7.6892,7.6676,7.668,7.6683,7.6837,0,7.6069,7.6216,7.6211,7.6347,7.6414,7.638,7.6452,7.6489,7.6499,7.6556,7.6567,7.6632,7.6581,7.6601,7.6657,7.6669,7.6753,7.6658,7.6736,7.6739,7.6725,7.6919,7.6948,7.7091,7.6856,7.686,7.6862,0,7.6266,7.6319,7.6462,7.6501,7.653,7.6595,7.6652,7.6709,7.6749,7.6753,7.6792,7.6773,7.6855,7.6785,7.6897,7.6832,7.6864,7.6875,7.6881,7.6885,7.6807,7.6927,7.7137,7.7158,7.6893,7.6891,7.6889,0,7.6393,7.65,7.66,7.6625,7.6674,7.672,7.6742,7.6779,7.6818,7.6868,7.6892,7.6951,7.6982,7.7027,7.7024,7.6974,7.7136,7.7067,7.7139,7.714,7.7173,7.717,7.7389,7.7198,7.7198,7.7197,7.7197,0,7.6562,7.665,7.6657,7.6718,7.6816,7.6809,7.6905,7.6922,7.6956,7.7018,7.6991,7.705,7.7043,7.7102,7.71,7.7191,7.7206,7.721,7.7207,7.7211,7.721,7.723,7.7219,7.7203,7.7202,7.7201,7.72,0,7.6719,7.6728,7.6833,7.6872,7.6884,7.6954,7.6985,7.7042,7.7051,7.713,7.7148,7.7161,7.7228,7.7231,7.7307,7.7306,7.7417,7.7405,7.7404,7.7401,7.7473,7.7465,7.771,7.7741,7.7532,7.7534,7.7535,0,7.6825,7.6892,7.6939,7.698,7.7005,7.7071,7.7111,7.7107,7.7149,7.7201,7.7251,7.7317,7.7368,7.7477,7.7492,7.7551,7.7538,7.762,7.7547,7.7548,7.7537,7.7532,7.7538,7.7633,7.7636,7.7638,7.7639,0,7.7012,7.7013,7.7072,7.7134,7.7183,7.723,7.7274,7.7308,7.731,7.7358,7.7428,7.7468,7.7548,7.7612,7.7669,7.7689,7.7664,7.7663,7.7682,7.7685,7.7681,7.7682,7.7441,7.7656,7.7655,7.7654,7.7653,7.7652,7.7145,7.7203,7.7245,7.7312,7.7345,7.7387,7.7443,7.7459,7.7518,7.7584,7.7578,7.7655,7.7693,7.7767,7.7793,7.7852,7.7823,7.7852,7.7859,7.7865,7.7872,7.7674,7.7862,7.7862,7.7861,7.7861,7.786,0,7.7329,7.7355,7.7417,7.748,7.7532,7.7507,7.7555,7.7599,7.7668,7.7707,7.776,7.7839,7.7902,7.7923,7.7983,7.8026,7.8016,7.8042,7.8037,7.8042,7.7895,7.7871,7.8049,7.8049,7.8049,7.8049,7.8049,7.8049,7.7431,7.7527,7.7534,7.7646,7.767,7.7747,7.7776,7.7814,7.7845,7.7936,7.7989,7.8003,7.8034,7.8097,7.8153,7.8157,7.8179,7.821,7.8209,7.8071,7.8052,7.8034,7.8011,7.8215,7.8216,7.8351,7.8352,7.8353]}]]